User: anonymous   Login
Location: Hamilton
(37.7830°S, 175.2830°E)
Time: 01:15:06
(UTC+12:00)
Language:

Helios 1B rocket - Orbit

View from above orbital plane
View from above orbital plane
View from above satellite
View from above satellite

Ground track
Ground track

The orbit data is extracted from the following two-line orbital elements,

1 25979U 99064C   22178.89314321  .00001896  00000-0  16705-3 0  9997
2 25979  98.2077 140.3577 0006352  18.2829 341.8618 14.97774047224762
Epoch (UTC): 27 June 2022 21:26:07
Eccentricity: 0.0006352
inclination: 98.2077°
perigee height: 569 km
apogee height: 578 km
right ascension of ascending node: 140.3577°
argument of perigee: 18.2829°
revolutions per day: 14.97774047
mean anomaly at epoch: 341.8618°
orbit number at epoch: 22476

The dashed part of the orbit path shows where the satellite is in the earth's shadow,  

DLR